Location: Newark
(25.4800°N, 85.7200°E)
Time: 10:22:19
(UTC+00:00)

Explorer 11/Cluster Stage 4 - Pass Details

Date: 24 August 2019
Orbit: 467 x 1260 km, 28.8° (Epoch: 14 September)

Event Time Altitude Azimuth Distance (km) Brightness Sun altitude
Rises 06:04:05 0° 272° (W) 4,151 10.2 75.2°
Reaches altitude 10° 06:07:00 10° 275° (W) 3,218 9.8 75.4°
Maximum altitude 06:15:15 70° 358° (N) 1,309 8.8 75.7°
Drops below altitude 10° 06:23:04 10° 81° (E) 3,048 9.7 75.7°
Sets 06:25:45 0° 84° (E) 3,923 10.1 75.6°
